This is the latest recevied weather packets stored in our database for station/object 4S6DRJ-13. If no packets are shown the sender has not sent any weather packets the latest 10 day(s).
| Time | Temp. | Humidity | Pressure | Rain* | Wind** | Luminosity | Snow |
|---|---|---|---|---|---|---|---|
| 1788284191 | 28.33° C | 83% | 1011.5 hPa | 0 mm | 0.89 m/s, 196° | 0 W/m² | - |
| 1788284130 | 28.33° C | 83% | 1011.5 hPa | 0 mm | 0.89 m/s, 235° | 0 W/m² | - |
| 1788284069 | 28.33° C | 83% | 1011.7 hPa | 0 mm | 0.45 m/s, 218° | 0 W/m² | - |
| 1788284008 | 28.33° C | 83% | 1011.6 hPa | 0 mm | 0.89 m/s, 268° | 0 W/m² | - |
| 1788283947 | 28.33° C | 83% | 1011.7 hPa | 0 mm | 0.89 m/s, 228° | 0 W/m² | - |
| 1788283886 | 28.33° C | 83% | 1011.6 hPa | 0 mm | 1.79 m/s, 234° | 0 W/m² | - |
| 1788283825 | 28.33° C | 83% | 1011.8 hPa | 0 mm | 0 m/s | 0 W/m² | - |
| 1788283764 | 28.33° C | 83% | 1011.5 hPa | 0 mm | 0.89 m/s, 282° | 0 W/m² | - |
| 1788283703 | 28.33° C | 83% | 1011.6 hPa | 0 mm | 0.45 m/s, 225° | 0 W/m² | - |
| 1788283642 | 28.33° C | 83% | 1011.7 hPa | 0 mm | 0.45 m/s, 238° | 0 W/m² | - |
| 1788283593 | 28.33° C | 83% | 1011.7 hPa | 0 mm | 0.45 m/s, 215° | 0 W/m² | - |
| 1788283521 | 28.33° C | 83% | 1011.7 hPa | 0 mm | 0 m/s | 0 W/m² | - |
| 1788283459 | 28.33° C | 83% | 1011.8 hPa | 0 mm | 0.89 m/s, 211° | 0 W/m² | - |
| 1788283399 | 28.33° C | 83% | 1011.5 hPa | 0 mm | 0.89 m/s, 192° | 0 W/m² | - |
| 1788283337 | 28.33° C | 83% | 1011.6 hPa | 0 mm | 0.45 m/s, 223° | 0 W/m² | - |
| 1788283276 | 28.33° C | 83% | 1011.6 hPa | 0 mm | 1.34 m/s, 13° | 0 W/m² | - |
| 1788283215 | 28.33° C | 83% | 1011.8 hPa | 0 mm | 0 m/s | 0 W/m² | - |
| 1788283154 | 28.33° C | 83% | 1011.7 hPa | 0 mm | 0.89 m/s, 240° | 0 W/m² | - |
| 1788283093 | 28.33° C | 83% | 1011.7 hPa | 0 mm | 0.45 m/s, 215° | 0 W/m² | - |
| 1788283032 | 28.33° C | 83% | 1011.8 hPa | 0 mm | 1.79 m/s, 204° | 0 W/m² | - |
| 1788282971 | 28.33° C | 83% | 1011.8 hPa | 0 mm | 0 m/s | 0 W/m² | - |
| 1788282910 | 28.33° C | 83% | 1011.6 hPa | 0 mm | 1.34 m/s, 264° | 0 W/m² | - |
| 1788282849 | 28.33° C | 83% | 1011.7 hPa | 0 mm | 0.89 m/s, 256° | 0 W/m² | - |
| 1788282788 | 28.33° C | 83% | 1011.8 hPa | 0 mm | 0 m/s | 0 W/m² | - |
| 1788282727 | 28.33° C | 83% | 1011.7 hPa | 0 mm | 0 m/s | 0 W/m² | - |
* Rain latest hour (hover to see other rain measurements)
** Current wind speed in m/s (hover to see current wind gust speed)